Theta_e
302 301 297 296 298 305 304 305 311 312 308 305 301 306 309 310 310 310 310 312 313 315 317 320 314 315 316 319 318 320 319 318 322 323 323 322 321 320 317 321 323 319 319 323
301 302 297 296 300 307 306 304 308 311 310 309 305 305 308 310 311 310 310 312 313 315 316 319 322 321 320 320 319 320 319 319 322 323 322 323 325 322 317 314 315 322 324 325
301 302 298 296 301 307 307 309 315 308 303 301 308 311 310 311 312 311 311 311 313 314 316 319 321 324 322 323 325 334 322 316 321 323 324 323 326 326 320 319 323 320 321 324
301 302 302 296 301 309 308 306 310 308 313 309 312 310 310 311 311 312 313 313 312 316 317 322 326 327 326 325 326 319 319 321 321 321 322 324 325 327 324 325 322 327 326 323
301 301 302 298 300 308 308 306 306 305 307 309 311 310 312 311 312 310 314 316 314 316 321 321 326 324 325 328 325 319 318 323 323 326 328 328 328 327 326 331 326 326 331 329
301 301 302 299 297 306 305 305 306 304 308 310 310 310 312 312 312 314 316 325 323 324 324 323 323 321 316 321 327 330 323 319 319 325 330 323 323 330 335 341 341 338 331 328
301 301 301 300 296 301 305 304 303 306 310 311 312 312 311 314 315 316 322 321 322 320 318 320 317 317 316 317 317 322 327 327 322 329 323 323 321 338 335 340 343 339 336 335
301 301 301 301 295 299 305 305 303 302 307 310 311 311 310 313 314 317 319 318 316 311 316 317 318 317 318 319 316 319 320 322 325 326 323 325 340 341 335 333 337 339 336 338
300 301 301 301 296 297 305 305 305 300 303 308 309 309 308 308 311 316 316 315 313 312 313 318 319 320 318 320 320 315 316 318 324 323 328 329 327 329 334 323 324 338 336 337
299 301 301 300 296 295 303 305 304 302 301 301 305 307 308 305 308 314 312 313 318 314 313 317 320 321 320 320 320 319 316 317 324 326 325 324 322 329 332 324 323 334 337 334
298 300 300 299 296 294 298 303 300 303 300 301 303 305 305 305 306 310 310 316 320 323 315 316 315 316 316 317 317 319 317 320 320 321 322 323 339 343 329 324 334 335 334 332
298 299 299 298 295 294 296 299 298 302 302 302 306 306 307 307 306 304 306 316 316 319 321 321 319 319 317 316 319 320 324 318 321 319 319 329 333 337 338 333 336 334 332 333
297 298 298 296 295 295 295 297 299 302 299 302 303 308 310 308 308 307 305 309 310 311 315 319 320 322 316 319 322 321 322 322 333 335 335 334 333 332 340 340 341 341 333 333
297 297 297 296 295 294 295 298 302 303 300 304 306 309 309 310 310 307 306 308 308 308 311 315 316 318 311 314 314 317 319 327 334 337 334 333 331 331 330 334 338 340 337 334
297 297 297 295 294 294 297 305 304 304 304 305 305 306 310 311 309 307 306 307 304 305 309 313 316 311 312 311 320 329 326 327 329 333 329 330 330 331 333 339 341 339 338 338
297 297 296 295 294 294 302 303 304 303 302 302 303 304 308 310 309 308 306 306 304 304 305 308 306 307 311 314 324 325 323 322 323 329 327 329 332 332 333 339 340 338 336 336
297 296 296 295 294 295 299 304 306 305 302 303 307 307 307 309 307 305 303 304 304 305 304 305 305 306 309 313 320 324 324 323 325 326 328 331 329 331 335 338 337 336 335 334
297 297 295 294 297 300 304 307 307 305 303 303 307 309 310 310 307 307 302 305 303 305 306 306 306 304 305 308 310 311 320 321 322 324 321 324 324 325 333 334 333 332 332 331
296 296 296 302 303 304 308 308 306 305 306 307 306 310 314 309 308 305 306 304 309 304 309 307 308 307 308 305 308 311 316 319 319 319 318 318 322 323 326 329 329 330 329 330
296 298 303 303 307 308 306 305 303 303 302 301 305 304 312 309 310 313 312 308 309 313 310 306 308 308 308 313 313 313 313 312 316 317 318 318 319 319 319 320 319 319 319 321
299 301 302 304 305 306 304 305 307 306 309 303 304 304 309 306 313 314 311 313 312 317 313 311 310 319 317 313 313 312 313 314 314 315 315 315 316 317 318 318 319 320 320 321
299 298 300 302 303 302 308 306 307 309 311 307 308 306 304 308 310 313 312 315 314 318 312 317 319 317 315 314 315 314 313 315 315 315 314 315 316 317 317 318 319 320 321 321
298 301 303 303 302 302 309 311 310 309 308 309 310 314 311 312 314 313 312 315 315 313 317 320 319 316 315 314 314 316 313 313 313 313 314 315 316 316 316 315 316 318 319 320
301 305 299 304 303 305 306 306 306 306 310 312 311 313 313 313 316 315 317 314 316 320 319 321 322 320 318 314 313 312 311 311 311 312 313 314 314 314 315 316 316 316 317 317
304 308 307 306 304 303 303 303 306 309 311 312 314 313 312 314 316 313 315 320 320 320 319 323 320 318 315 312 311 310 309 309 310 311 312 312 313 314 314 315 315 315 315 315
303 305 306 305 306 306 306 306 307 308 311 309 311 314 314 314 313 317 318 318 320 317 314 313 311 311 310 309 308 308 309 310 310 311 312 313 314 314 314 315 315 315 315 315
306 304 303 303 303 304 306 307 308 309 311 313 312 313 314 311 314 316 314 317 315 313 313 310 309 308 308 307 307 309 310 311 312 312 314 315 316 316 316 316 316 316 316 315
Wind_Speed
26 30 31 32 35 29 11 3 3 5 2 4 1 3 4 4 4 2 3 1 4 4 3 3 5 9 6 5 8 10 7 4 4 8 2 1 1 5 6 5 3 1 3 5
26 30 31 32 33 23 5 2 1 1 4 2 2 4 4 3 2 3 2 3 5 1 3 3 3 4 2 3 9 10 7 0 2 8 5 3 5 3 5 6 4 4 5 5
24 29 31 32 31 15 4 2 2 4 4 1 3 2 4 4 3 5 4 4 2 2 2 1 3 3 2 4 2 3 10 4 7 6 7 5 3 4 4 5 4 5 5 5
26 28 30 31 30 11 4 3 1 3 2 2 2 1 3 3 5 3 3 3 6 3 2 3 3 2 5 4 6 4 4 7 5 2 5 3 6 5 6 4 6 5 4 6
24 25 28 31 30 9 5 3 2 3 1 3 1 2 2 3 4 5 4 4 6 6 6 6 2 1 2 1 5 4 2 3 4 3 2 5 5 2 6 4 4 2 3 6
21 22 24 28 30 12 6 5 3 2 2 4 1 2 3 4 3 7 7 4 2 4 4 3 1 2 1 3 2 2 3 5 3 4 2 3 3 1 2 3 0 1 5 4
18 21 23 25 27 23 6 5 1 2 2 1 2 4 6 6 4 4 4 1 2 1 5 2 2 3 3 1 6 2 5 4 3 2 2 3 5 3 4 6 3 4 4 5
17 19 21 22 23 21 8 7 3 2 1 2 4 7 4 5 4 2 3 4 3 5 4 4 5 5 5 4 7 7 4 5 4 4 2 2 5 3 3 3 1 5 4 4
16 17 19 20 22 19 6 13 7 2 3 3 4 4 3 3 4 6 4 4 7 4 4 4 4 4 4 2 2 4 6 7 5 3 3 5 6 1 2 3 4 6 6 5
14 16 17 18 20 18 8 6 12 2 1 3 2 1 2 2 1 2 4 7 8 4 3 3 3 3 2 3 4 1 3 4 4 3 1 5 5 4 1 6 7 3 4 3
13 14 16 17 18 18 14 2 10 5 1 5 3 3 2 3 2 2 4 3 3 4 4 2 2 2 0 3 1 2 3 4 2 2 4 6 4 4 4 4 2 4 6 5
11 13 15 15 16 17 15 2 8 10 4 5 6 20 23 15 14 3 2 2 1 1 3 1 2 2 3 1 1 4 2 4 2 5 4 2 4 3 4 2 1 2 5 4
10 12 14 14 14 15 15 8 10 4 3 5 4 2 6 6 15 11 2 2 2 1 1 3 2 4 3 2 1 1 3 2 2 2 1 3 5 6 3 2 3 1 4 7
10 11 13 13 14 14 14 8 4 3 2 1 5 8 3 5 5 8 8 3 2 2 2 2 2 3 1 2 2 2 4 1 4 2 4 4 3 3 5 7 5 4 4 2
10 11 12 13 14 14 12 3 4 3 2 2 5 18 3 5 4 4 3 3 3 2 2 2 1 1 3 1 1 2 1 4 3 4 3 3 5 5 5 3 2 4 5 4
10 11 12 12 13 14 2 2 3 8 6 2 3 5 5 5 2 3 5 4 3 2 2 1 2 2 2 3 1 4 2 3 4 4 5 3 3 4 3 1 3 1 5 4
10 10 11 11 11 12 2 3 1 4 11 2 4 5 3 3 2 3 2 3 2 2 1 1 0 1 3 2 3 5 3 1 5 5 6 0 2 1 3 4 5 4 5 4
10 11 12 12 11 8 4 2 4 5 2 1 1 4 4 4 0 0 2 2 2 3 1 1 1 2 2 1 7 5 4 2 2 5 3 3 3 3 4 6 4 5 4 3
9 11 11 2 0 1 2 2 2 1 1 1 1 2 3 3 1 1 2 2 1 2 1 1 3 2 2 5 3 5 3 5 6 3 3 6 6 5 3 3 4 3 4 3
9 6 1 2 1 1 1 1 2 3 2 2 3 1 3 2 1 1 1 2 1 0 2 1 2 2 3 4 5 6 9 8 6 6 4 1 1 2 2 2 2 2 3 5
1 2 1 3 3 2 2 1 1 0 2 3 3 5 2 1 2 2 0 2 0 1 3 2 1 2 3 8 7 7 6 10 9 9 7 7 5 3 3 4 6 7 6 4
2 4 4 3 3 3 1 2 2 3 4 3 3 4 5 2 2 2 2 2 1 2 1 2 1 2 2 5 6 7 9 11 10 12 7 6 5 3 1 2 5 7 9 9
1 1 1 3 1 3 3 4 3 2 2 2 2 2 2 1 1 2 2 2 3 0 2 1 1 1 2 3 4 4 9 10 9 8 7 8 7 7 5 7 9 12 14 13
1 2 2 3 2 4 4 4 3 4 2 2 1 1 2 1 2 2 1 1 1 1 0 1 2 3 1 3 3 4 7 8 7 7 8 9 10 12 14 14 14 14 17 20
1 1 2 4 4 4 4 4 2 3 1 2 2 1 2 1 3 0 2 1 2 1 1 2 2 3 1 3 3 5 5 6 7 9 9 12 13 13 16 17 17 19 22 22
1 2 2 4 0 3 2 2 4 2 1 1 1 2 2 2 2 2 3 1 2 2 2 2 0 2 3 4 5 8 10 10 11 12 13 14 14 14 15 16 16 18 18 20
2 3 3 2 4 4 3 1 2 1 1 2 2 2 2 2 2 1 1 2 2 2 1 1 2 4 6 6 10 12 14 13 14 15 13 14 14 13 12 9 11 11 12 9
Wind_Direction
358 359 359 358 351 350 1 34 54 17 84 55 17 161 206 279 281 324 310 246 231 253 300 257 219 207 232 141 147 156 188 153 204 239 270 230 201 133 133 119 217 84 145 272
2 359 -0 360 355 351 348 77 251 115 351 123 305 294 284 262 273 260 265 270 222 44 295 308 215 212 248 359 155 165 182 148 29 347 1 20 84 84 101 107 93 184 123 268
5 1 1 359 358 4 37 72 56 337 52 132 128 350 280 276 239 254 231 259 227 333 303 14 283 311 5 359 148 97 107 125 158 186 204 148 132 156 177 119 106 169 214 278
6 2 358 359 2 3 11 31 190 165 291 344 346 306 296 297 324 266 223 272 224 184 260 318 297 323 329 33 353 69 111 181 169 261 216 151 153 175 167 129 159 130 226 208
4 359 357 2 8 13 68 81 39 356 314 302 318 178 266 239 261 226 274 218 274 178 190 193 243 337 8 279 336 79 19 179 134 40 67 158 120 147 140 75 113 304 173 263
2 358 358 8 13 25 64 28 26 105 323 346 7 256 288 264 349 269 236 262 204 170 207 196 270 183 317 318 233 110 82 124 79 182 335 88 24 90 101 108 128 121 185 269
3 2 3 10 15 22 61 40 22 55 294 21 292 303 298 283 272 264 330 129 226 275 306 119 57 30 350 69 27 79 117 87 73 125 63 177 258 319 174 138 170 208 262 273
2 4 3 8 11 18 67 39 44 86 283 254 294 313 300 320 306 302 306 346 310 312 34 62 37 351 12 7 24 21 68 108 76 119 87 299 327 246 166 125 290 192 196 245
1 3 4 7 9 18 79 39 26 90 107 252 310 313 340 350 326 344 320 319 311 52 72 70 130 190 218 312 34 19 49 67 105 92 111 196 228 297 339 80 321 197 189 199
359 1 3 5 7 13 26 47 23 81 79 269 326 323 298 338 11 264 307 338 347 22 68 83 142 208 199 169 149 151 28 16 122 125 141 287 277 318 333 87 233 186 135 95
352 358 0 3 5 9 13 82 29 27 191 278 224 289 322 3 43 54 303 354 350 4 61 109 195 117 3 59 324 115 146 131 143 124 99 270 20 293 181 228 197 167 132 164
344 353 357 358 0 2 10 21 345 337 194 252 273 275 271 251 246 174 332 162 246 287 74 46 100 58 35 99 196 344 39 160 193 177 214 279 290 259 278 229 327 135 152 141
335 343 350 352 352 356 2 345 353 347 17 302 334 302 306 298 227 230 93 292 249 353 205 156 144 83 121 101 256 330 356 98 121 73 258 299 305 313 342 9 351 121 160 167
325 331 340 344 343 346 345 337 349 37 95 37 283 336 317 299 264 218 225 206 80 72 57 85 102 112 138 197 203 163 207 65 147 242 273 305 302 314 328 329 358 72 145 149
315 321 331 337 338 340 342 89 80 30 87 246 283 315 309 307 189 171 176 106 73 39 15 43 155 149 104 343 80 315 177 174 167 223 195 154 245 299 322 323 39 25 52 41
308 313 324 331 333 339 325 48 144 74 32 62 326 317 304 356 119 82 69 78 87 86 119 249 288 276 102 97 195 268 236 215 193 179 187 205 274 287 284 163 87 31 81 59
303 308 316 319 321 323 276 201 103 256 335 50 318 328 287 332 63 32 34 46 75 104 117 33 246 323 69 100 174 234 233 270 134 166 134 149 277 320 12 104 90 82 75 77
301 306 311 310 301 289 285 76 24 226 165 100 313 277 344 17 352 43 345 69 26 16 148 45 165 7 39 213 252 256 232 141 285 212 272 186 108 60 61 63 55 44 19 352
300 307 313 304 270 305 7 359 1 182 165 207 164 229 246 2 1 273 21 58 69 313 173 257 97 315 208 246 299 312 257 190 174 112 82 82 100 104 89 78 48 44 342 325
305 318 328 11 57 327 298 271 16 22 346 56 226 204 263 95 11 4 74 17 120 96 257 79 83 255 273 299 282 261 270 264 151 128 137 95 134 139 91 95 161 193 243 273
330 7 264 321 339 178 38 332 113 250 268 191 237 192 236 308 136 203 161 164 20 50 268 131 58 7 327 336 2 6 28 89 79 83 72 72 91 72 32 360 1 342 324 307
3 298 308 328 40 45 75 259 304 205 237 218 187 216 200 256 102 108 351 115 55 225 266 83 123 236 311 344 13 22 31 50 60 64 66 63 78 76 57 335 329 332 330 332
294 353 31 62 331 48 205 204 245 259 236 244 209 186 157 48 132 91 63 87 236 16 51 124 180 132 340 343 343 1 26 32 31 16 4 353 337 328 319 305 305 309 308 310
118 151 356 166 246 242 205 200 207 250 229 306 199 138 154 220 83 106 124 252 74 20 270 193 158 169 173 323 328 0 338 344 339 329 326 316 308 298 293 287 290 291 292 300
233 214 213 226 232 257 240 228 276 263 259 195 176 119 123 83 116 287 92 112 242 214 194 161 160 187 274 288 292 280 283 295 296 303 302 296 295 290 286 285 285 284 280 282
243 215 271 252 274 298 323 242 255 249 210 253 82 71 55 39 100 133 214 205 203 202 212 240 131 261 266 276 287 294 298 294 290 295 292 289 283 272 274 288 281 280 283 279
240 259 225 245 255 243 260 217 258 11 197 168 133 90 134 98 76 159 197 184 202 177 195 212 231 266 288 298 300 304 306 301 298 293 286 284 288 291 283 272 295 300 294 282